CW9197 Juva FI current weather conditions

sailwx.info

Wind from 356 at 1 knots gusting 6

Air temperature 10.0° C
Dewpoint 7.1° C

Last reported at 2014-Aug-29 19:21 UTC.
Time now 2014-Aug-30 00:27 UTC

Location: N 61°53' E 027°53'.
View on Google Maps.

See reports from other nearby stations

  
Tides and Currents Weather Stations Pressure Air Temp Water Temp Dewpoint Dewpoint Depression Visibility Wind Speed Wind Dir Waves Ship Positions
date/time (UTC)wind fromknots sea level pressurealtimeterstation pressurevisibilityair tempwater tempwave heightnotes
2014-Aug-29 19:21 356 1 gusting 6 10.0
2014-Aug-29 19:11 319 0 gusting 4 10.0
2014-Aug-29 19:01 347 1 gusting 4 10.0
2014-Aug-29 18:51 351 2 gusting 6 10.6
2014-Aug-29 18:41 10.6
2014-Aug-29 18:31 002 1 gusting 6 10.6
2014-Aug-29 18:21 012 1 gusting 2 10.6
2014-Aug-29 18:11 012 0 gusting 4 10.6
2014-Aug-29 18:01 027 0 gusting 3 10.6
2014-Aug-29 17:51 007 0 gusting 2 10.6
2014-Aug-29 17:41 010 0 gusting 2 10.6
2014-Aug-29 17:31 016 0 gusting 2 11.1
2014-Aug-29 17:21 051 0 gusting 2 11.1
2014-Aug-29 17:11 078 0 gusting 4 11.1
2014-Aug-29 17:01 358 0 gusting 4 11.1
2014-Aug-29 16:51 020 0 gusting 5 11.1
2014-Aug-29 16:40 035 0 gusting 4 11.1
2014-Aug-29 16:30 042 0 gusting 5 11.1
2014-Aug-29 16:20 050 2 gusting 5 11.7
2014-Aug-29 16:10 049 2 gusting 6 11.7
2014-Aug-29 16:00 042 2 gusting 8 11.7
2014-Aug-29 15:50 036 1 gusting 8 11.7
2014-Aug-29 15:40 058 2 gusting 6 12.2
2014-Aug-29 15:30 051 2 gusting 10 12.2
2014-Aug-29 15:20 032 3 gusting 8 12.2
2014-Aug-29 15:10 021 3 gusting 8 12.2
2014-Aug-29 15:00 053 1 gusting 7 12.2
2014-Aug-29 14:50 046 2 gusting 7 12.2
2014-Aug-29 14:40 021 4 gusting 7 12.2
2014-Aug-29 14:30 047 1 gusting 6 12.2
2014-Aug-29 14:20 029 3 gusting 7 12.2
2014-Aug-29 14:10 044 2 gusting 6 12.8
2014-Aug-29 14:00 045 3 gusting 9 13.3
2014-Aug-29 13:50 036 3 gusting 9 13.3
2014-Aug-29 13:40 048 4 gusting 9 13.3
2014-Aug-29 13:30 049 2 gusting 8 13.9
2014-Aug-29 13:20 063 3 gusting 11 13.9
2014-Aug-29 13:10 351 4 gusting 7 13.9
2014-Aug-29 13:00 007 4 gusting 8 13.3
2014-Aug-29 12:50 015 3 gusting 8 13.3
2014-Aug-29 12:40 046 3 gusting 9 13.9
2014-Aug-29 12:30 032 5 gusting 10 13.9
2014-Aug-29 12:20 038 3 gusting 13 13.3
2014-Aug-29 12:10 053 4 gusting 10 13.3
2014-Aug-29 12:00 036 2 gusting 9 13.3
2014-Aug-29 11:50 056 2 gusting 9 13.3
2014-Aug-29 11:40 045 2 gusting 2 13.3
2014-Aug-29 11:23 044 3 gusting 7 13.3
2014-Aug-29 11:13 020 2 gusting 7 13.3
2014-Aug-29 11:03 033 2 gusting 13 12.8
2014-Aug-29 10:53 015 3 gusting 10 12.8
2014-Aug-29 10:43 036 3 gusting 7 12.8
2014-Aug-29 10:33 035 3 gusting 9 13.3
2014-Aug-29 10:23 053 2 gusting 9 13.9
2014-Aug-29 10:13 069 6 gusting 12 13.9
2014-Aug-29 10:03 038 4 gusting 6 13.3
2014-Aug-29 09:53 026 2 gusting 6 13.3
2014-Aug-29 09:43 042 3 gusting 6 12.8
2014-Aug-29 09:33 072 3 gusting 8 13.3
2014-Aug-29 09:23 052 3 gusting 9 13.3
2014-Aug-29 09:13 045 3 gusting 10 13.3
2014-Aug-29 09:03 048 4 gusting 8 13.3
2014-Aug-29 08:53 036 3 gusting 7 13.9
2014-Aug-29 08:43 046 6 gusting 13 14.4
2014-Aug-29 08:33 072 5 gusting 10 13.9
2014-Aug-29 08:23 065 4 gusting 9 13.9
2014-Aug-29 08:13 056 5 gusting 12 13.9
2014-Aug-29 08:03 060 6 gusting 11 13.9
2014-Aug-29 07:53 058 6 gusting 11 13.9
2014-Aug-29 07:43 053 6 gusting 11 13.3
2014-Aug-29 07:33 048 2 gusting 9 12.8
2014-Aug-29 07:23 055 4 gusting 10 12.8
2014-Aug-29 07:13 059 3 gusting 12 12.2
2014-Aug-29 07:03 063 5 gusting 9 12.2
2014-Aug-29 06:53 057 5 gusting 10 12.2
2014-Aug-29 06:43 049 2 gusting 7 11.7
2014-Aug-29 06:33 049 1 gusting 8 12.2
2014-Aug-29 06:23 048 2 gusting 6 12.2
2014-Aug-29 06:13 037 1 gusting 4 12.2
2014-Aug-29 06:03 022 2 gusting 6 12.2
2014-Aug-29 05:52 042 3 gusting 5 12.2
2014-Aug-29 05:42 026 1 gusting 5 12.2
2014-Aug-29 05:32 025 1 gusting 6 12.2
2014-Aug-29 05:22 045 1 gusting 7 12.2
2014-Aug-29 05:12 067 3 gusting 3 12.2
2014-Aug-28 19:48 320 0 gusting 2 12.2
2014-Aug-28 19:38 292 12.2
2014-Aug-28 19:28 292 12.2
2014-Aug-28 19:18 292 12.2
2014-Aug-28 19:08 045 12.2
2014-Aug-28 18:58 045 12.8
2014-Aug-28 18:48 062 12.8
2014-Aug-28 18:38 060 1 gusting 6 12.8
2014-Aug-28 18:28 066 1 gusting 3 12.8
2014-Aug-28 18:18 022 0 gusting 2 12.8
2014-Aug-28 18:07 351 1 gusting 3 12.8
2014-Aug-28 17:57 13.3
2014-Aug-28 17:47 337 13.3
2014-Aug-28 17:37 004 1 gusting 3 13.3
2014-Aug-28 17:27 313 0 gusting 2 13.3
2014-Aug-28 17:17 350 0 gusting 2 13.9
2014-Aug-28 17:07 13.9
2014-Aug-28 16:57 312 13.9
2014-Aug-28 16:47 347 0 gusting 3 14.4
2014-Aug-28 16:37 356 0 gusting 4 14.4
2014-Aug-28 16:27 340 0 gusting 4 14.4
2014-Aug-28 16:17 324 0 gusting 2 15.0
2014-Aug-28 16:07 009 0 gusting 3 15.0
2014-Aug-28 15:57 016 1 gusting 6 15.0
2014-Aug-28 15:47 350 1 gusting 6 15.6
2014-Aug-28 15:37 351 0 gusting 5 15.6
2014-Aug-28 15:27 332 0 gusting 8 15.6
2014-Aug-28 15:17 023 2 gusting 7 15.0
2014-Aug-28 15:07 029 0 gusting 8 15.0
2014-Aug-28 14:57 053 2 gusting 6 15.6
2014-Aug-28 14:47 066 5 gusting 8 16.1
2014-Aug-28 14:37 048 3 gusting 8 16.7
2014-Aug-28 14:27 336 1 gusting 8 16.7
2014-Aug-28 14:17 331 3 gusting 7 15.6
2014-Aug-28 14:07 343 0 gusting 3 15.0
2014-Aug-28 13:57 357 2 gusting 7 15.6
2014-Aug-28 13:47 006 1 gusting 6 16.1
2014-Aug-28 13:37 352 2 gusting 6 16.1
2014-Aug-28 13:27 027 1 gusting 10 16.7
2014-Aug-28 13:17 028 4 gusting 10 17.2
2014-Aug-28 13:07 071 2 gusting 7 17.2
2014-Aug-28 12:57 352 2 gusting 6 17.2
2014-Aug-28 12:47 022 1 gusting 10 16.7
2014-Aug-28 12:37 060 4 gusting 8 17.2
2014-Aug-28 12:27 044 2 gusting 8 16.7
2014-Aug-28 12:17 030 4 gusting 7 17.2
2014-Aug-28 12:07 015 3 gusting 6 17.2
2014-Aug-28 11:57 034 3 gusting 7 17.2
2014-Aug-28 11:47 067 2 gusting 5 16.7
2014-Aug-28 11:37 008 2 gusting 6 16.7
2014-Aug-28 11:27 065 6 gusting 9 16.7
2014-Aug-28 11:17 077 4 gusting 11 17.2
2014-Aug-28 11:07 063 5 gusting 8 16.7
2014-Aug-28 10:57 044 2 gusting 6 16.1
2014-Aug-28 10:47 092 2 gusting 7 15.6
2014-Aug-28 10:37 072 3 gusting 5 15.6
2014-Aug-28 10:27 072 1 gusting 6 15.6
2014-Aug-28 10:17 057 3 gusting 6 16.1
2014-Aug-28 10:07 083 1 gusting 6 15.6
2014-Aug-28 09:57 046 2 gusting 6 16.1
2014-Aug-28 09:46 059 2 gusting 7 16.1
2014-Aug-28 09:36 067 2 gusting 6 15.6
2014-Aug-28 09:26 060 1 gusting 6 15.0
2014-Aug-28 09:16 056 2 gusting 5 15.0
2014-Aug-28 09:06 029 1 gusting 6 15.6
2014-Aug-28 08:56 063 4 gusting 8 16.1
2014-Aug-28 08:46 065 3 gusting 7 15.0
2014-Aug-28 08:36 078 4 gusting 11 15.0
2014-Aug-28 08:26 066 4 gusting 8 14.4
2014-Aug-28 08:16 060 3 gusting 6 15.0
2014-Aug-28 08:06 034 2 gusting 6 15.0
2014-Aug-28 07:56 075 3 gusting 8 15.6
2014-Aug-28 07:46 055 3 gusting 9 15.6
2014-Aug-28 07:36 039 4 gusting 8 15.0
2014-Aug-28 07:26 058 2 gusting 8 14.4
2014-Aug-28 07:16 060 4 gusting 12 13.9
2014-Aug-28 07:06 066 4 gusting 7 13.3
2014-Aug-28 06:56 056 3 gusting 6 12.8
2014-Aug-28 06:46 064 1 gusting 5 12.8
2014-Aug-28 06:36 069 1 gusting 4 12.8
2014-Aug-28 06:26 047 2 gusting 6 12.2
2014-Aug-28 06:16 043 4 gusting 7 12.2
2014-Aug-28 06:06 065 5 gusting 7 12.2
2014-Aug-28 05:56 053 3 gusting 5 12.2
2014-Aug-28 05:46 066 2 gusting 5 12.2